Weather Roundup
Issued by NWS Springfield, MO

Home | Current Version | Previous Version | Text Only | Print | Product List | Glossary On
Versions: 1 2 3 4 5 6 7 8 9 10 11 12 13 14 15 16 17 18 19 20 21 22 23 24 25 26 27 28 29 30 31 32 33 34 35 36 37 38 39 40 41 42 43 44 45 46 47 48 49 50
000
NZUS99 KSGF 040207
HRRSGF

HOURLY WEATHER
NATIONAL WEATHER SERVICE SPRINGFIELD MO
800 PM CST SAT DEC 03 2016

......SGF CWA......

CITY           SKY/WX    TMP DP  RH WIND       PRES   REMARKS
SPRINGFIELD    LGT RAIN  40  35  83 SE12      30.12F WCI  33
JOPLIN         CLOUDY    42  38  85 VRB5      30.13R
WEST PLAINS    LGT RAIN  38  36  92 E8        30.18F WCI  32
ROLLA          CLOUDY    41  31  67 SE8       30.18F
OSAGE BEACH    CLOUDY    43  31  62 SE7       30.19F
BRANSON        CLOUDY    37  37 100 E15G21    30.12F FOG     WCI  28

......SURROUNDING SGF CWA......

CITY           SKY/WX    TMP DP  RH WIND       PRES   REMARKS
CHANUTE        CLOUDY    45  40  82 SE9       30.11S
PARSONS        CLOUDY    46  41  82 E5        30.12S
COFFEYVILLE    CLOUDY    45  43  93 E7        30.12S
EMPORIA        CLOUDY    43  37  79 E3        30.10F
GROVE OK       CLOUDY    43  41  93 NE3       30.12R
ROGERS AR      LGT RAIN  41  38  89 E13       30.08S
SILOAM SPRINGS CLOUDY    41  37  87 E12       30.06F
HARRISON AR    LGT RAIN  38  38 100 E13       30.12F FOG     WCI  30
NEAR YELLVILLE CLOUDY    39  34  81 E8        30.13F WCI  34

......KANSAS AND MISSOURI......

CITY           SKY/WX    TMP DP  RH WIND       PRES   REMARKS
KANSAS CTY INT CLOUDY    45  30  55 SE8       30.12F
DOWNTOWN KC    CLOUDY    48  32  53 SE9       30.12F
COLUMBIA       CLOUDY    41  32  70 E10       30.18F
SEDALIA        CLOUDY    44  32  62 SE10      30.16F
ST JOSEPH      LGT RAIN  42  33  70 E6        30.13F
ST LOUIS       CLOUDY    42  32  67 E9        30.25F
SPIRIT OF STL  CLOUDY    41  33  73 E5        30.24F
KIRKSVILLE     CLOUDY    39  33  79 SE12      30.19F WCI  32
WICHITA        LGT RAIN  42  40  92 E6        30.08F
TOPEKA         CLOUDY    42  37  82 CALM      30.12R
OLATHE         CLOUDY    44  32  62 SE7       30.12S

......TENNESSEE......

CITY           SKY/WX    TMP DP  RH WIND       PRES   REMARKS
MEMPHIS        LGT RAIN  43  42  97 NE10      30.17F
NASHVILLE      LGT RAIN  41  34  76 NE8       30.28F

......ARKANSAS.......

CITY           SKY/WX    TMP DP  RH WIND       PRES   REMARKS
FAYETTEVILLE   CLOUDY    41  41 100 E5        30.07F
FT SMITH       CLOUDY    44  42  93 E14       30.06F
LITTLE ROCK    LGT RAIN  43  43 100 NE9       30.15S

......OKLAHOMA.......

CITY           SKY/WX    TMP DP  RH WIND       PRES   REMARKS
TULSA          DRIZZLE   46  44  93 E5        30.09R FOG
PONCA CITY     LGT RAIN  44  41  89 SE9       30.08F FOG
MCALESTER      LGT RAIN  46  44  93 E3        30.05S FOG
OKLAHOMA CITY  CLOUDY    44  43  96 E7        30.05S

......IOWA............

CITY           SKY/WX    TMP DP  RH WIND       PRES   REMARKS
DES MOINES     LGT RAIN  39  33  79 SE10      30.17F WCI  32
QUAD CITIES    PTCLDY    34  26  72 SE9       30.27F WCI  27

......ILLINOIS........

CITY           SKY/WX    TMP DP  RH WIND       PRES   REMARKS
QUINCY         CLOUDY    38  33  82 E8        30.24F WCI  32
CHICAGO        CLOUDY    32  24  72 SW3       30.30R



USA.gov is the U.S. government's official web portal to all federal, state and local government web resources and services.